Preview of NWS' New Version of Forecast
This preview is not operational and should not be used for support decisions.

Regional Weather Roundup (RWR)

Issued by National Weather Service (NWS)

                            
000
ASUS43 KTOP 191908
RWRKS 

WEATHER ROUNDUP FOR KANSAS
NATIONAL WEATHER SERVICE GOODLAND KS
200 PM CDT MON AUG 19 2019

NOTE:  "FAIR" INDICATES FEW OR NO CLOUDS BELOW 12,000 FEET WITH NO
SIGNIFICANT WEATHER AND/OR OBSTRUCTIONS TO VISIBILITY.

KSZ001>006-013>018-027>032-041>047-192000-
NORTHWEST KANSAS
  
CITY           SKY/WX    TMP DP  RH WIND       PRES   REMARKS
GOODLAND       MOSUNNY   86  73  65 SE13      29.99F                  
HAYS           SUNNY     93  71  48 SE16      30.04R HX 100           
RUSSELL        SUNNY     92  70  48 S12       29.94F HX  97           
$$

KSZ061>065-074>080-084>089-192000-
SOUTHWEST KANSAS
  
CITY           SKY/WX    TMP DP  RH WIND       PRES   REMARKS
DODGE CITY     SUNNY     96  65  35 S13G22    29.98F HX  98           
ELKHART        SUNNY    101  65  30 SE14G22   30.00F HX 104           
GARDEN CITY    SUNNY     95  65  37 S13       29.98F HX  97           
GREAT BEND     SUNNY     93  71  48 S9        29.96F HX 100           
LIBERAL        SUNNY     98  66  34 S10G20    29.98F HX 101           
PRATT          SUNNY     97  64  33 S12       29.97F HX  99           
$$

KSZ066>073-081>083-090>101-192000-
SOUTHEAST KANSAS
  
CITY           SKY/WX    TMP DP  RH WIND       PRES   REMARKS
CHANUTE        SUNNY     94  76  55 S12       29.98F HX 106           
COFFEYVILLE    SUNNY     92  78  63 S9        29.96F HX 107           
HUTCHINSON     SUNNY     94  74  52 SE10      29.95F HX 104           
MEDICINE LODGE   N/A     97  67  37 S12G18    29.93F HX 101           
NEWTON         SUNNY     89  77  67 S8        29.98F HX 101           
PARSONS        SUNNY     93  79  63 SW8       29.99F HX 110           
WICHITA INTL   MOSUNNY   95  73  48 S9        29.95F HX 104           
WICHITA JABRA  SUNNY     92  75  57 SE6       29.96F HX 103           
WICHITA MCCONL SUNNY     93  71  47 E9        29.96F HX  99           
WINFIELD       SUNNY     93  75  55 S8        29.96F HX 104           
$$

KSZ007>012-019>026-033>040-048>060-102>105-192000-
NORTHEAST KANSAS
  
CITY           SKY/WX    TMP DP  RH WIND       PRES   REMARKS
CONCORDIA      SUNNY     90  78  68 SE10      29.95F HX 104           
EMPORIA        SUNNY     91  76  61 S9        29.97F HX 103           
LAWRENCE       SUNNY     94  76  55 SE8       29.96F HX 106           
MANHATTAN      SUNNY     93  77  59 SE8       29.94F HX 107           
MARYSVILLE     SUNNY     88  79  74 SE7       29.96F HX 102           
OLATHE IND     SUNNY     90  75  61 S5        29.99F HX 100           
OLATHE EXE     SUNNY     89  77  67 S6        29.99F HX 101           
SALINA         SUNNY     91  77  63 SE8       29.94F HX 104           
TOPEKA BILLARD SUNNY     91  75  59 SE7       29.96F HX 101           
TOPEKA FORBES  SUNNY     94  76  55 VRB6      29.97F HX 106           
$$